Weather History for Gunnison, CO

Change the Weather History Date:

Thursday, February 13, 2014

  Actual Average Record
Temperature  
Mean Temperature 30 °F -  
Max Temperature 44 °F 27 °F 44 °F (2003)
Min Temperature 17 °F 3 °F -25 °F (2004)
Degree Days  
Heating Degree Days 34    
Moisture  
Dew Point 21 °F    
Average Humidity 69    
Maximum Humidity 93    
Minimum Humidity 46    
Precipitation  
Precipitation 0.00 in - - ()
Sea Level Pressure  
Sea Level Pressure 30.12 in    
Wind  
Wind Speed 5 mph (WSW)    
Max Wind Speed 21 mph    
Max Gust Speed 31 mph    
Visibility 10 miles    
Events      
Averages and records for this station are not official NWS values.
T = Trace of Precipitation, MM = Missing Value Source: NWS Daily Summary

Daily Weather History Graph

Daily Weather History Graph

Search for Another Location

Airport:

Trip Planner

Search our weather history database for the weather conditions in past years. The results will help you decide how hot, cold, wet, or windy it might be!

Date:

Astronomy

Feb. 13, 2014 Rise Set
Actual Time 7:00 AM MST 5:43 PM MST
Civil Twilight 6:33 AM MST 6:10 PM MST
Nautical Twilight 6:02 AM MST 6:42 PM MST
Astronomical Twilight 5:31 AM MST 7:12 PM MST
Moon 4:54 PM MST (2/13) 5:55 AM MST (2/13)
Length of Visible Light 11h 37m
Length of Day
10h 42m
Waxing Gibbous, 99% of the Moon is Illuminated
Feb 13
Waxing Gibbous
Feb 14
Full
Feb 22
Last Quarter
Mar 1
New
Mar 8
First Quarter

Hourly Weather History & Observations

Time (MST) Temp. Windchill Dew Point Humidity Pressure Visibility Wind Dir Wind Speed Gust Speed Precip Events Conditions
12:15 AM 19.4 °F - 15.8 °F 86% 30.19 in 10.0 mi Calm Calm - N/A   Overcast
12:35 AM 19.4 °F 14.3 °F 14.0 °F 80% 30.20 in 10.0 mi North 3.5 mph - N/A   Overcast
12:55 AM 21.2 °F 16.4 °F 15.8 °F 80% 30.18 in 10.0 mi NE 3.5 mph - N/A   Overcast
1:15 AM 19.4 °F 14.3 °F 12.2 °F 74% 30.17 in 10.0 mi SSE 3.5 mph - N/A   Overcast
1:35 AM 19.4 °F - 15.8 °F 86% 30.18 in 10.0 mi Calm Calm - N/A   Overcast
1:55 AM 21.2 °F - 15.8 °F 80% 30.18 in 10.0 mi Calm Calm - N/A   Overcast
2:15 AM 19.4 °F 11.5 °F 12.2 °F 74% 30.17 in 10.0 mi ESE 5.8 mph - N/A   Overcast
2:35 AM 19.4 °F 12.8 °F 14.0 °F 80% 30.18 in 10.0 mi South 4.6 mph - N/A   Overcast
2:55 AM 21.2 °F - 15.8 °F 80% 30.18 in 10.0 mi Calm Calm - N/A   Overcast
3:15 AM 21.2 °F - 15.8 °F 80% 30.16 in 10.0 mi Calm Calm - N/A   Overcast
3:35 AM 21.2 °F - 14.0 °F 74% 30.16 in 10.0 mi Calm Calm - N/A   Overcast
3:55 AM 21.2 °F - 15.8 °F 80% 30.16 in 10.0 mi Calm Calm - N/A   Scattered Clouds
4:15 AM 19.4 °F - 15.8 °F 86% 30.15 in 10.0 mi Calm Calm - N/A   Scattered Clouds
4:35 AM 19.4 °F 12.8 °F 14.0 °F 80% 30.16 in 10.0 mi ESE 4.6 mph - N/A   Overcast
4:55 AM 19.4 °F 14.3 °F 12.2 °F 74% 30.15 in 10.0 mi ESE 3.5 mph - N/A   Overcast
5:15 AM 19.4 °F - 12.2 °F 74% 30.15 in 10.0 mi Calm Calm - N/A   Overcast
5:35 AM 19.4 °F - 15.8 °F 86% 30.15 in 10.0 mi Calm Calm - N/A   Partly Cloudy
5:55 AM 19.4 °F - 15.8 °F 86% 30.15 in 10.0 mi Calm Calm - N/A   Partly Cloudy
6:15 AM 17.6 °F 12.3 °F 12.2 °F 79% 30.16 in 10.0 mi ESE 3.5 mph - N/A   Partly Cloudy
6:35 AM 17.6 °F - 15.8 °F 93% 30.16 in 10.0 mi Calm Calm - N/A   Mostly Cloudy
6:55 AM 17.6 °F - 12.2 °F 79% 30.17 in 10.0 mi Calm Calm - N/A   Scattered Clouds
7:15 AM 19.4 °F - 14.0 °F 80% 30.17 in 10.0 mi Calm Calm - N/A   Mostly Cloudy
7:35 AM 19.4 °F 14.3 °F 14.0 °F 80% 30.17 in 10.0 mi North 3.5 mph - N/A   Overcast
7:55 AM 21.2 °F - 15.8 °F 80% 30.17 in 10.0 mi Calm Calm - N/A   Overcast
8:15 AM 21.2 °F 16.4 °F 15.8 °F 80% 30.18 in 8.0 mi South 3.5 mph - N/A   Overcast
8:35 AM 21.2 °F - 17.6 °F 86% 30.18 in 10.0 mi Calm Calm - N/A   Overcast
8:55 AM 21.2 °F - 15.8 °F 80% 30.18 in 10.0 mi Calm Calm - N/A   Overcast
9:15 AM 23.0 °F - 17.6 °F 80% 30.18 in 10.0 mi Calm Calm - N/A   Overcast
9:35 AM 24.8 °F - 19.4 °F 80% 30.18 in 10.0 mi Calm Calm - N/A   Overcast
9:55 AM 24.8 °F - 17.6 °F 74% 30.18 in 10.0 mi Calm Calm - N/A   Overcast
10:15 AM 24.8 °F 20.5 °F 17.6 °F 74% 30.18 in 10.0 mi SSE 3.5 mph - N/A   Overcast
10:35 AM 24.8 °F 17.9 °F 17.6 °F 74% 30.17 in 10.0 mi SSE 5.8 mph - N/A   Overcast
10:55 AM 26.6 °F - 21.2 °F 80% 30.17 in 10.0 mi Calm Calm - N/A   Overcast
11:15 AM 26.6 °F - 21.2 °F 80% 30.17 in 10.0 mi Calm Calm - N/A   Overcast
11:35 AM 28.4 °F 24.6 °F 21.2 °F 74% 30.15 in 10.0 mi South 3.5 mph - N/A   Overcast
11:55 AM 28.4 °F - 21.2 °F 74% 30.15 in 10.0 mi Calm Calm - N/A   Overcast
12:35 PM 33.8 °F 28.6 °F 24.8 °F 70% 30.12 in 10.0 mi South 5.8 mph - N/A   Overcast
12:55 PM 39.2 °F 34.2 °F 26.6 °F 61% 30.11 in 10.0 mi SSE 6.9 mph - N/A   Overcast
1:15 PM 41.0 °F 36.4 °F 24.8 °F 53% 30.09 in 10.0 mi South 6.9 mph - N/A   Overcast
1:35 PM 42.8 °F - 24.8 °F 49% 30.08 in 10.0 mi Calm Calm - N/A   Overcast
1:55 PM 41.0 °F 39.0 °F 26.6 °F 57% 30.08 in 10.0 mi SSW 3.5 mph - N/A   Mostly Cloudy
2:15 PM 42.8 °F 37.5 °F 24.8 °F 49% 30.07 in 10.0 mi WNW 9.2 mph - N/A   Mostly Cloudy
2:35 PM 44.6 °F 39.2 °F 24.8 °F 46% 30.06 in 10.0 mi West 10.4 mph - N/A   Scattered Clouds
2:55 PM 42.8 °F 38.0 °F 24.8 °F 49% 30.05 in 10.0 mi WNW 8.1 mph - N/A   Scattered Clouds
3:15 PM 42.8 °F 35.8 °F 24.8 °F 49% 30.05 in 10.0 mi West 13.8 mph 23.0 mph N/A   Clear
3:35 PM 42.8 °F 36.6 °F 24.8 °F 49% 30.05 in 10.0 mi West 11.5 mph 18.4 mph N/A   Clear
3:55 PM 42.8 °F 36.2 °F 24.8 °F 49% 30.04 in 10.0 mi West 12.7 mph 24.2 mph N/A   Clear
4:15 PM 42.8 °F 34.3 °F 24.8 °F 49% 30.05 in 10.0 mi West 19.6 mph 26.5 mph N/A   Clear
4:35 PM 42.8 °F 34.3 °F 23.0 °F 46% 30.06 in 10.0 mi West 19.6 mph 24.2 mph N/A   Clear
4:55 PM 42.8 °F 34.0 °F 24.8 °F 49% 30.07 in 10.0 mi WNW 20.7 mph 26.5 mph N/A   Scattered Clouds
5:15 PM 39.2 °F 29.8 °F 26.6 °F 61% 30.08 in 10.0 mi West 18.4 mph 23.0 mph N/A   Partly Cloudy
5:55 PM 37.4 °F 28.2 °F 26.6 °F 65% 30.06 in 10.0 mi WNW 16.1 mph - N/A   Mostly Cloudy
6:15 PM 39.2 °F 30.5 °F 26.6 °F 61% 30.06 in 10.0 mi West 16.1 mph 24.2 mph N/A   Partly Cloudy
6:35 PM 39.2 °F 32.5 °F 24.8 °F 56% 30.08 in 10.0 mi West 10.4 mph - N/A   Clear
6:55 PM 39.2 °F 32.0 °F 24.8 °F 56% 30.07 in 10.0 mi West 11.5 mph - N/A   Clear
7:15 PM 39.2 °F 30.8 °F 24.8 °F 56% 30.06 in 10.0 mi West 15.0 mph - N/A   Partly Cloudy
7:35 PM 39.2 °F 30.5 °F 24.8 °F 56% 30.05 in 10.0 mi West 16.1 mph 21.9 mph N/A   Partly Cloudy
7:55 PM 39.2 °F 30.8 °F 24.8 °F 56% 30.05 in 10.0 mi West 15.0 mph 20.7 mph N/A   Scattered Clouds
8:15 PM 37.4 °F 28.5 °F 26.6 °F 65% 30.04 in 10.0 mi WNW 15.0 mph 24.2 mph N/A   Overcast
8:35 PM 37.4 °F 29.3 °F 26.6 °F 65% 30.03 in 10.0 mi West 12.7 mph - N/A   Overcast
8:55 PM 37.4 °F 30.8 °F 28.4 °F 70% 30.04 in 10.0 mi West 9.2 mph - N/A   Mostly Cloudy
9:15 PM 37.4 °F 30.8 °F 28.4 °F 70% 30.05 in 10.0 mi West 9.2 mph 16.1 mph N/A   Mostly Cloudy
9:35 PM 37.4 °F 29.3 °F 26.6 °F 65% 30.05 in 9.0 mi West 12.7 mph 20.7 mph N/A   Overcast
9:55 PM 39.2 °F 29.8 °F 26.6 °F 61% 30.03 in 10.0 mi West 18.4 mph 28.8 mph N/A   Mostly Cloudy
10:15 PM 39.2 °F 29.3 °F 26.6 °F 61% 30.03 in 10.0 mi West 20.7 mph 27.6 mph N/A   Mostly Cloudy
10:35 PM 39.2 °F 29.6 °F 26.6 °F 61% 30.04 in 10.0 mi West 19.6 mph 31.1 mph N/A   Partly Cloudy
10:55 PM 39.2 °F 30.2 °F 26.6 °F 61% 30.04 in 10.0 mi West 17.3 mph 27.6 mph N/A   Mostly Cloudy
11:15 PM 39.2 °F 30.8 °F 26.6 °F 61% 30.05 in 10.0 mi West 15.0 mph 20.7 mph N/A   Scattered Clouds
11:35 PM 39.2 °F 32.0 °F 24.8 °F 56% 30.06 in 10.0 mi West 11.5 mph 25.3 mph N/A   Clear
11:55 PM 39.2 °F 31.2 °F 24.8 °F 56% 30.06 in 10.0 mi West 13.8 mph 21.9 mph N/A   Partly Cloudy